Simultaneous Nadir Overpasses (SNOs) Predictions

Prediction of SNOs between GOES-17 and METOP-C Satellite Orbit:

Table of predicted SNOs for the next 14.0 days since TLE Epoch: 4/11/2025
Index Date Time (GOES-17) GOES-17 Lat,Lon METOP-C Lat,Lon Distance(km) Time Diff (sec)
1 04/12/2025 16:17:02 0.04,-104.42 -0.49,-102.00 275.51 80
2 04/14/2025 04:36:00 -0.04,-104.37 -0.54,-106.59 253.13 80
3 04/15/2025 04:18:00 -0.04,-104.36 0.58,-101.59 316.15 80
4 04/16/2025 16:36:50 0.04,-104.41 0.42,-106.15 198.47 80
5 04/17/2025 16:13:29 0.03,-104.41 -0.70,-101.16 370.56 80
6 04/19/2025 04:32:27 -0.03,-104.35 -0.36,-105.74 158.62 80
7 04/20/2025 04:14:26 -0.02,-104.35 0.77,-100.74 410.41 80
8 04/21/2025 16:30:37 0.02,-104.39 0.22,-105.31 104.37 80
9 04/22/2025 16:09:56 0.02,-104.39 -0.92,-100.31 464.78 80
10 04/24/2025 04:31:33 -0.02,-104.33 -0.12,-104.90 64.04 80
